DW5684 Weather Reports


Display with metric or nautical units.
time (UTC)temp
F
wind
direction
speed
MPH
gust
MPH
rain 1hr
in
rain 24hr
in
rain mn
in
humidity
%
barometer
mb
20260906002309 91 265 0.0 0.0 0.00 0.00 0.00 59 1012.4
20260906001843 92 265 0.0 0.0 0.00 0.00 0.00 57 1012.3
20260906001336 93 265 0.0 0.0 0.00 0.00 0.00 55 1012.3
20260906000810 94 265 0.0 0.0 0.00 0.00 0.00 51 1012.3
20260906000326 95 265 0.0 0.0 0.00 0.00 0.00 48 1012.3
20260905235820 95 265 0.0 1.0 0.00 0.00 0.00 46 1012.4
20260905235315 95 309 0.0 1.0 0.00 0.00 0.00 46 1012.3
20260905234810 96 300 0.0 0.0 0.00 0.00 0.00 45 1012.2
20260905234345 96 356 0.0 0.0 0.00 0.00 0.00 43 1012.2
20260905233818 97 328 0.0 0.0 0.00 0.00 0.00 44 1012.2
20260905233336 97 276 0.0 0.0 0.00 0.00 0.00 42 1012.3
20260905232809 97 265 0.0 0.0 0.00 0.00 0.00 42 1012.2
20260905232324 98 134 0.0 0.0 0.00 0.00 0.00 42 1012.2
20260905231819 98 195 0.0 1.0 0.00 0.00 0.00 41 1012.2
20260905231314 98 273 0.0 1.0 0.00 0.00 0.00 42 1012.0
20260905230829 98 281 0.0 0.0 0.00 0.00 0.00 41 1012.1
20260905230324 98 313 0.0 0.0 0.00 0.00 0.00 40 1012.0
20260905225818 98 322 0.0 0.0 0.00 0.00 0.00 40 1012.0
20260905225317 99 235 0.0 2.0 0.00 0.00 0.00 39 1012.0
20260905224812 99 94 0.0 2.0 0.00 0.00 0.00 39 1012.1
20260905224327 99 213 0.0 2.0 0.00 0.00 0.00 40 1012.0
20260905223823 99 134 0.0 2.0 0.00 0.00 0.00 40 1012.0
20260905223316 99 305 0.0 0.0 0.00 0.00 0.00 39 1012.1
20260905222811 100 184 0.0 1.0 0.00 0.00 0.00 38 1012.1
20260905222325 100 184 0.0 3.0 0.00 0.00 0.00 38 1012.1
20260905221820 100 304 0.0 1.0 0.00 0.00 0.00 38 1012.2
20260905221320 101 322 0.0 3.0 0.00 0.00 0.00 39 1012.3
20260905220815 101 228 0.0 3.0 0.00 0.00 0.00 38 1012.3
20260905220309 102 300 0.0 4.0 0.00 0.00 0.00 36 1012.3
20260905215844 102 209 0.0 4.0 0.00 0.00 0.00 36 1012.4
20260905215317 102 287 0.0 1.0 0.00 0.00 0.00 36 1012.4
20260905214810 102 274 0.0 0.0 0.00 0.00 0.00 38 1012.5
20260905214325 103 289 0.0 0.0 0.00 0.00 0.00 36 1012.5
20260905213820 103 319 0.0 1.0 0.00 0.00 0.00 37 1012.5
20260905213318 103 109 0.0 2.0 0.00 0.00 0.00 39 1012.6
20260905212814 102 77 0.0 3.0 0.00 0.00 0.00 38 1012.6
20260905212309 102 199 0.0 3.0 0.00 0.00 0.00 38 1012.7
20260905211823 103 277 0.0 3.0 0.00 0.00 0.00 37 1012.8
20260905211318 103 212 1.0 3.0 0.00 0.00 0.00 38 1013.0
20260905210813 101 229 0.0 2.0 0.00 0.00 0.00 39 1013.0
20260905210327 100 271 0.0 2.0 0.00 0.00 0.00 40 1013.0
20260905205822 99 283 1.0 2.0 0.00 0.00 0.00 41 1013.1
20260905205319 99 350 0.0 2.0 0.00 0.00 0.00 40 1013.3
20260905204813 99 328 0.0 2.0 0.00 0.00 0.00 42 1013.3
20260905204327 98 143 0.0 0.0 0.00 0.00 0.00 43 1013.4
20260905203821 98 127 0.0 3.0 0.00 0.00 0.00 42 1013.5
20260905203316 99 312 1.0 3.0 0.00 0.00 0.00 41 1013.6
20260905202811 98 129 0.0 1.0 0.00 0.00 0.00 43 1013.6
20260905202346 98 208 0.0 2.0 0.00 0.00 0.00 43 1013.6
20260905201819 99 309 0.0 2.0 0.00 0.00 0.00 42 1013.8
20260905201318 100 239 0.0 5.0 0.00 0.00 0.00 41 1013.8
20260905200813 101 319 3.0 5.0 0.00 0.00 0.00 40 1013.7
20260905200308 102 288 0.0 4.0 0.00 0.00 0.00 40 1013.8
20260905195843 102 3 0.0 6.0 0.00 0.00 0.00 41 1013.9
20260905195317 101 293 0.0 6.0 0.00 0.00 0.00 42 1013.9
20260905194812 101 276 0.0 8.0 0.00 0.00 0.00 43 1013.9
20260905194327 101 292 2.0 8.0 0.00 0.00 0.00 42 1014.1
20260905193822 102 285 0.0 5.0 0.00 0.00 0.00 38 1014.0
20260905193337 102 79 3.0 5.0 0.00 0.00 0.00 38 1014.1
20260905192816 102 207 2.0 3.0 0.00 0.00 0.00 38 1014.2
20260905192311 101 122 0.0 5.0 0.00 0.00 0.00 42 1014.2
20260905191826 100 212 2.0 5.0 0.00 0.00 0.00 41 1014.3
20260905191321 100 354 0.0 3.0 0.00 0.00 0.00 41 1014.4
20260905190816 99 171 0.0 3.0 0.00 0.00 0.00 42 1014.5
20260905190332 98 6 0.0 4.0 0.00 0.00 0.00 43 1014.7
20260905185825 97 306 1.0 4.0 0.00 0.00 0.00 48 1014.8
20260905185321 97 271 0.0 1.0 0.00 0.00 0.00 45 1014.8
20260905184818 97 321 0.0 6.0 0.00 0.00 0.00 45 1014.9
20260905184331 98 315 1.0 6.0 0.00 0.00 0.00 44 1015.0
20260905183825 99 14 2.0 4.0 0.00 0.00 0.00 44 1015.0
20260905183320 100 306 1.0 8.0 0.00 0.00 0.00 44 1015.1
20260905182815 100 349 3.0 8.0 0.00 0.00 0.00 44 1015.1
20260905182310 100 23 1.0 5.0 0.00 0.00 0.00 42 1015.2
20260905181825 100 298 1.0 5.0 0.00 0.00 0.00 43 1015.3
20260905181320 100 91 0.0 5.0 0.00 0.00 0.00 45 1015.3
20260905180819 100 313 0.0 5.0 0.00 0.00 0.00 45 1015.4
20260905180313 100 110 1.0 5.0 0.00 0.00 0.00 44 1015.5
20260905175809 99 317 2.0 5.0 0.00 0.00 0.00 44 1015.5
20260905175324 99 25 0.0 3.0 0.00 0.00 0.00 44 1015.6
20260905174819 99 346 0.0 4.0 0.00 0.00 0.00 47 1015.7
20260905174314 98 20 0.0 3.0 0.00 0.00 0.00 44 1015.8
20260905173828 98 69 0.0 3.0 0.00 0.00 0.00 45 1015.8
20260905173322 98 266 0.0 4.0 0.00 0.00 0.00 45 1015.9
20260905172821 98 330 1.0 4.0 0.00 0.00 0.00 46 1016.0
20260905172316 99 290 2.0 4.0 0.00 0.00 0.00 44 1016.1
20260905171811 99 176 1.0 3.0 0.00 0.00 0.00 45 1016.1
20260905171326 99 206 1.0 4.0 0.00 0.00 0.00 46 1016.2
20260905170842 98 183 2.0 5.0 0.00 0.00 0.00 45 1016.3
20260905170315 97 278 1.0 5.0 0.00 0.00 0.00 47 1016.4
20260905165810 97 289 0.0 7.0 0.00 0.00 0.00 47 1016.4
20260905165323 97 342 3.0 7.0 0.00 0.00 0.00 46 1016.4
20260905164821 98 283 2.0 6.0 0.00 0.00 0.00 47 1016.4
20260905164315 97 49 0.0 3.0 0.00 0.00 0.00 48 1016.4
20260905163847 96 276 0.0 6.0 0.00 0.00 0.00 48 1016.4
20260905163320 97 36 3.0 6.0 0.00 0.00 0.00 48 1016.5
20260905162815 96 257 0.0 4.0 0.00 0.00 0.00 49 1016.5
20260905162310 96 5 2.0 4.0 0.00 0.00 0.00 48 1016.5
20260905161825 97 222 0.0 5.0 0.00 0.00 0.00 48 1016.6
20260905161318 97 4 1.0 3.0 0.00 0.00 0.00 48 1016.7
20260905160833 96 203 0.0 1.0 0.00 0.00 0.00 49 1016.7
20260905160330 96 293 0.0 4.0 0.00 0.00 0.00 49 1016.6
20260905155824 96 283 2.0 4.0 0.00 0.00 0.00 50 1016.7
20260905155318 95 216 0.0 3.0 0.00 0.00 0.00 51 1016.6
20260905154833 94 302 2.0 4.0 0.00 0.00 0.00 52 1016.6
20260905154327 95 319 0.0 4.0 0.00 0.00 0.00 51 1016.5
20260905153820 94 210 0.0 4.0 0.00 0.00 0.00 52 1016.4
20260905153314 94 302 0.0 5.0 0.00 0.00 0.00 53 1016.4
20260905152809 94 321 0.0 2.0 0.00 0.00 0.00 52 1016.4
20260905152325 94 300 0.0 4.0 0.00 0.00 0.00 51 1016.3
20260905151824 94 212 1.0 4.0 0.00 0.00 0.00 52 1016.3
20260905151339 94 286 0.0 3.0 0.00 0.00 0.00 53 1016.3
20260905150813 94 244 0.0 3.0 0.00 0.00 0.00 53 1016.3
20260905150308 94 274 0.0 3.0 0.00 0.00 0.00 52 1016.3
20260905145823 94 199 0.0 3.0 0.00 0.00 0.00 52 1016.2
20260905145317 94 199 0.0 4.0 0.00 0.00 0.00 53 1016.1
20260905144812 93 281 0.0 2.0 0.00 0.00 0.00 53 1016.3
20260905144307 93 212 1.0 2.0 0.00 0.00 0.00 53 1016.2
20260905143826 93 205 0.0 2.0 0.00 0.00 0.00 56 1016.1
20260905143321 92 240 0.0 3.0 0.00 0.00 0.00 54 1016.0
20260905142815 92 203 1.0 3.0 0.00 0.00 0.00 55 1016.0
20260905142311 92 162 1.0 3.0 0.00 0.00 0.00 54 1016.0
20260905141826 92 146 0.0 0.0 0.00 0.00 0.00 55 1016.0
20260905141321 92 211 0.0 0.0 0.00 0.00 0.00 55 1015.9
20260905140815 91 203 0.0 0.0 0.00 0.00 0.00 57 1015.9
20260905140329 91 200 0.0 2.0 0.00 0.00 0.00 57 1016.0
20260905135826 90 219 0.0 3.0 0.00 0.00 0.00 59 1016.0
20260905135320 89 207 1.0 4.0 0.00 0.00 0.00 59 1016.0
20260905134815 89 214 1.0 3.0 0.00 0.00 0.00 60 1015.9
20260905134310 88 232 0.0 2.0 0.00 0.00 0.00 61 1015.9
20260905133825 88 147 0.0 2.0 0.00 0.00 0.00 62 1016.0
20260905133318 88 205 0.0 2.0 0.00 0.00 0.00 62 1015.9
20260905132832 87 207 0.0 2.0 0.00 0.00 0.00 63 1016.0
20260905132324 86 165 1.0 2.0 0.00 0.00 0.00 65 1016.0
20260905131839 86 200 0.0 3.0 0.00 0.00 0.00 66 1015.9
20260905131317 85 212 1.0 3.0 0.00 0.00 0.00 66 1015.9
20260905130812 85 217 0.0 3.0 0.00 0.00 0.00 66 1015.8
20260905130326 84 212 0.0 2.0 0.00 0.00 0.00 68 1015.8
20260905125842 83 199 0.0 3.0 0.00 0.00 0.00 70 1015.7
20260905125315 82 217 0.0 3.0 0.00 0.00 0.00 71 1015.6
20260905124810 81 221 0.0 1.0 0.00 0.00 0.00 73 1015.6
20260905124325 79 221 0.0 0.0 0.00 0.00 0.00 76 1015.5
20260905123841 77 221 0.0 0.0 0.00 0.00 0.00 78 1015.4
20260905123315 77 221 0.0 0.0 0.00 0.00 0.00 78 1015.5
20260905122814 76 221 0.0 0.0 0.00 0.00 0.00 79 1015.4
20260905122309 76 221 0.0 0.0 0.00 0.00 0.00 79 1015.4
20260905121823 76 221 0.0 0.0 0.00 0.00 0.00 79 1015.3
20260905121318 76 221 0.0 0.0 0.00 0.00 0.00 79 1015.2
20260905120813 76 221 0.0 0.0 0.00 0.00 0.00 79 1015.2
20260905120307 76 221 0.0 0.0 0.00 0.00 0.00 79 1015.1
20260905115821 76 221 0.0 0.0 0.00 0.00 0.00 79 1015.0
20260905115314 76 221 0.0 0.0 0.00 0.00 0.00 79 1015.0
20260905114812 76 221 0.0 0.0 0.00 0.00 0.00 79 1015.0
20260905114326 76 211 0.0 0.0 0.00 0.00 0.00 79 1014.9
20260905113821 76 146 0.0 0.0 0.00 0.00 0.00 79 1014.8
20260905113315 76 146 0.0 0.0 0.00 0.00 0.00 79 1014.9
20260905112830 76 146 0.0 0.0 0.00 0.00 0.00 79 1014.9
20260905112324 76 146 0.0 0.0 0.00 0.00 0.00 78 1014.8
20260905111818 76 146 0.0 0.0 0.00 0.00 0.00 78 1014.8
20260905111312 76 146 0.0 0.0 0.00 0.00 0.00 78 1014.8
20260905110811 76 146 0.0 0.0 0.00 0.00 0.00 78 1014.8
20260905110326 77 146 0.0 0.0 0.00 0.00 0.00 78 1014.8
20260905105821 77 146 0.0 0.0 0.00 0.00 0.00 78 1014.8
20260905105317 77 146 0.0 0.0 0.00 0.00 0.00 77 1014.7
20260905104812 77 146 0.0 0.0 0.00 0.00 0.00 77 1014.7
20260905104326 77 146 0.0 0.0 0.00 0.00 0.00 77 1014.7
20260905103841 77 146 0.0 0.0 0.00 0.00 0.00 77 1014.7
20260905103314 77 146 0.0 0.0 0.00 0.00 0.00 77 1014.6
20260905102809 77 146 0.0 0.0 0.00 0.00 0.00 77 1014.7
20260905102307 77 146 0.0 0.0 0.00 0.00 0.00 77 1014.8
20260905101823 77 146 0.0 0.0 0.00 0.00 0.00 77 1014.8
20260905101318 77 146 0.0 0.0 0.00 0.00 0.00 77 1014.7
20260905100813 78 146 0.0 0.0 0.00 0.00 0.00 76 1014.6
20260905100328 78 146 0.0 0.0 0.00 0.00 0.00 76 1014.6
20260905095822 78 218 0.0 0.0 0.00 0.00 0.00 76 1014.6
20260905095317 78 216 0.0 0.0 0.00 0.00 0.00 76 1014.7
20260905094812 78 214 0.0 0.0 0.00 0.00 0.00 76 1014.6
20260905094332 78 214 0.0 1.0 0.00 0.00 0.00 76 1014.5
20260905093826 77 223 0.0 1.0 0.00 0.00 0.00 77 1014.5
20260905093341 77 186 0.0 2.0 0.00 0.00 0.00 77 1014.5
20260905092814 77 168 0.0 0.0 0.00 0.00 0.00 77 1014.4
20260905092309 77 167 0.0 0.0 0.00 0.00 0.00 78 1014.4
20260905091824 77 169 0.0 0.0 0.00 0.00 0.00 78 1014.4
20260905091319 77 167 0.0 0.0 0.00 0.00 0.00 78 1014.5
20260905090814 77 167 0.0 0.0 0.00 0.00 0.00 78 1014.5
20260905090313 77 169 0.0 0.0 0.00 0.00 0.00 78 1014.5
20260905085808 77 169 0.0 0.0 0.00 0.00 0.00 77 1014.4
20260905085342 77 168 0.0 0.0 0.00 0.00 0.00 77 1014.4
20260905084816 77 169 0.0 0.0 0.00 0.00 0.00 77 1014.4
20260905084310 77 169 0.0 0.0 0.00 0.00 0.00 77 1014.3
20260905083826 77 169 0.0 0.0 0.00 0.00 0.00 76 1014.3
20260905083340 78 168 0.0 0.0 0.00 0.00 0.00 75 1014.4
20260905082811 78 169 0.0 0.0 0.00 0.00 0.00 75 1014.4
20260905082325 78 168 0.0 0.0 0.00 0.00 0.00 75 1014.4
20260905081840 78 168 0.0 0.0 0.00 0.00 0.00 74 1014.4
20260905081312 78 169 0.0 0.0 0.00 0.00 0.00 74 1014.4
20260905080830 79 169 0.0 0.0 0.00 0.00 0.00 73 1014.4
20260905080323 79 168 0.0 0.0 0.00 0.00 0.00 73 1014.4
20260905075817 80 169 0.0 0.0 0.00 0.00 0.00 72 1014.4
20260905075310 80 169 0.0 0.0 0.00 0.00 0.00 72 1014.3
20260905074825 80 169 0.0 0.0 0.00 0.00 0.00 72 1014.4
20260905074320 80 160 0.0 0.0 0.00 0.00 0.00 71 1014.4
20260905073814 80 160 0.0 0.0 0.00 0.00 0.00 71 1014.4
20260905073311 81 128 0.0 0.0 0.00 0.00 0.00 71 1014.4
20260905072809 81 191 0.0 0.0 0.00 0.00 0.00 70 1014.4
20260905072324 81 213 0.0 0.0 0.00 0.00 0.00 70 1014.5
20260905071819 81 212 0.0 0.0 0.00 0.00 0.00 70 1014.5
20260905071334 81 212 0.0 0.0 0.00 0.00 0.00 69 1014.4
20260905070808 81 164 0.0 0.0 0.00 0.00 0.00 69 1014.5
20260905070323 82 202 0.0 2.0 0.00 0.00 0.00 69 1014.5
20260905065818 82 222 0.0 2.0 0.00 0.00 0.00 68 1014.5
20260905065313 82 195 0.0 3.0 0.00 0.00 0.00 68 1014.6
20260905064811 83 214 1.0 4.0 0.00 0.00 0.00 67 1014.7
20260905064325 83 222 1.0 4.0 0.00 0.00 0.00 67 1014.6
20260905063840 83 220 1.0 4.0 0.00 0.00 0.00 67 1014.6
20260905063334 83 228 2.0 4.0 0.00 0.00 0.00 67 1014.7
20260905062826 83 209 1.0 4.0 0.00 0.00 0.00 67 1014.7
20260905062321 82 217 2.0 4.0 0.00 0.00 0.00 67 1014.7
20260905061836 82 207 1.0 4.0 0.00 0.00 0.00 67 1014.7
20260905061310 82 226 1.0 4.0 0.00 0.00 0.00 68 1014.8
20260905060844 82 191 0.0 2.0 0.00 0.00 0.00 68 1014.8
20260905060318 82 195 1.0 2.0 0.00 0.00 0.00 68 1014.8
20260905055817 82 214 0.0 2.0 0.00 0.00 0.00 67 1014.8
20260905055311 82 222 0.0 2.0 0.00 0.00 0.00 67 1014.8
20260905054826 82 196 0.0 3.0 0.00 0.00 0.00 66 1014.8
20260905054321 83 229 0.0 3.0 0.00 0.00 0.00 66 1014.8
20260905053816 83 218 1.0 3.0 0.00 0.00 0.00 66 1014.7
20260905053311 83 210 0.0 3.0 0.00 0.00 0.00 66 1014.8
20260905052824 82 212 0.0 5.0 0.00 0.00 0.00 67 1014.8
20260905052318 81 210 1.0 5.0 0.00 0.00 0.00 68 1014.7
20260905051817 81 215 0.0 1.0 0.00 0.00 0.00 70 1014.6
20260905051312 80 162 0.0 0.0 0.00 0.00 0.00 71 1014.6
20260905050827 79 182 0.0 0.0 0.00 0.00 0.00 72 1014.6
20260905050321 79 182 0.0 0.0 0.00 0.00 0.00 73 1014.6
20260905045815 79 184 0.0 0.0 0.00 0.00 0.00 74 1014.5
20260905045310 79 184 0.0 0.0 0.00 0.00 0.00 74 1014.6
20260905044825 79 184 0.0 0.0 0.00 0.00 0.00 74 1014.5
20260905044319 80 184 0.0 0.0 0.00 0.00 0.00 73 1014.5
20260905043818 80 184 0.0 0.0 0.00 0.00 0.00 74 1014.5
20260905043313 80 184 0.0 0.0 0.00 0.00 0.00 73 1014.6
20260905042827 80 184 0.0 0.0 0.00 0.00 0.00 73 1014.6
20260905042321 80 184 0.0 0.0 0.00 0.00 0.00 74 1014.5
20260905041816 79 184 0.0 0.0 0.00 0.00 0.00 74 1014.5
20260905041311 79 184 0.0 0.0 0.00 0.00 0.00 74 1014.5
20260905040825 79 184 0.0 0.0 0.00 0.00 0.00 75 1014.6
20260905040320 78 185 0.0 0.0 0.00 0.00 0.00 76 1014.5
20260905035818 78 184 0.0 0.0 0.00 0.00 0.00 75 1014.5
20260905035333 78 184 0.0 0.0 0.00 0.00 0.00 75 1014.4
20260905034846 79 184 0.0 0.0 0.00 0.00 0.00 75 1014.4
20260905034319 79 184 0.0 0.0 0.00 0.00 0.00 74 1014.5
20260905033814 79 185 0.0 0.0 0.00 0.00 0.00 76 1014.5
20260905033329 79 184 0.0 0.0 0.00 0.00 0.00 75 1014.5
20260905032843 79 184 0.0 0.0 0.00 0.00 0.00 74 1014.4
20260905032317 79 184 0.0 0.0 0.00 0.00 0.00 74 1014.4
20260905031812 79 184 0.0 0.0 0.00 0.00 0.00 72 1014.4
20260905031311 80 184 0.0 0.0 0.00 0.00 0.00 73 1014.4
20260905030825 80 185 0.0 0.0 0.00 0.00 0.00 74 1014.3
20260905030320 80 184 0.0 0.0 0.00 0.00 0.00 74 1014.3
20260905025815 79 185 0.0 0.0 0.00 0.00 0.00 72 1014.3
20260905025329 79 185 0.0 0.0 0.00 0.00 0.00 72 1014.3
20260905024823 80 184 0.0 0.0 0.00 0.00 0.00 73 1014.2
20260905024337 80 184 0.0 0.0 0.00 0.00 0.00 72 1014.1
20260905023811 80 184 0.0 0.0 0.00 0.00 0.00 72 1014.0
20260905023325 81 184 0.0 0.0 0.00 0.00 0.00 71 1013.9
20260905022824 81 184 0.0 0.0 0.00 0.00 0.00 70 1013.8
20260905022319 81 184 0.0 0.0 0.00 0.00 0.00 69 1013.7
20260905021814 81 184 0.0 0.0 0.00 0.00 0.00 69 1013.7
20260905021329 82 185 0.0 0.0 0.00 0.00 0.00 68 1013.7
20260905020823 82 184 0.0 0.0 0.00 0.00 0.00 68 1013.6
20260905020318 82 184 0.0 0.0 0.00 0.00 0.00 67 1013.5
20260905015832 82 185 0.0 0.0 0.00 0.00 0.00 66 1013.4
20260905015326 83 186 0.0 0.0 0.00 0.00 0.00 67 1013.3
20260905014821 83 185 0.0 0.0 0.00 0.00 0.00 64 1013.3
20260905014340 83 185 0.0 0.0 0.00 0.00 0.00 64 1013.2
20260905013814 84 185 0.0 0.0 0.00 0.00 0.00 63 1013.2
20260905013309 84 186 0.0 0.0 0.00 0.00 0.00 63 1013.1
20260905012844 84 185 0.0 0.0 0.00 0.00 0.00 63 1013.0
20260905012338 85 186 0.0 0.0 0.00 0.00 0.00 61 1013.0
20260905011811 85 186 0.0 0.0 0.00 0.00 0.00 61 1013.0
20260905011326 86 186 0.0 0.0 0.00 0.00 0.00 60 1012.9
20260905010841 86 186 0.0 0.0 0.00 0.00 0.00 58 1012.9
20260905010315 87 186 0.0 0.0 0.00 0.00 0.00 57 1012.9
20260905005814 87 186 0.0 0.0 0.00 0.00 0.00 57 1012.9
20260905005309 88 186 0.0 0.0 0.00 0.00 0.00 55 1012.9
20260905004845 88 186 0.0 0.0 0.00 0.00 0.00 54 1012.8
20260905004318 89 186 0.0 0.0 0.00 0.00 0.00 54 1012.8
20260905003813 90 186 0.0 0.0 0.00 0.00 0.00 52 1012.7
20260905003328 90 186 0.0 0.0 0.00 0.00 0.00 51 1012.8
20260905002821 91 186 0.0 0.0 0.00 0.00 0.00 50 1012.8